TimeAKDT,TemperatureF,Dew PointF,Humidity,Sea Level PressureIn,VisibilityMPH,Wind Direction,Wind SpeedMPH,Gust SpeedMPH,PrecipitationIn,Events,Conditions,WindDirDegrees,DateUTC
12:16 AM,30.2,28.4,93,29.67,10.0,SW,3.5,-,N/A,,Clear,220,2012-10-20 08:16:00
12:36 AM,30.2,28.4,93,29.68,10.0,Calm,Calm,-,N/A,,Clear,0,2012-10-20 08:36:00
12:56 AM,30.2,28.4,93,29.68,10.0,SW,3.5,-,N/A,,Clear,220,2012-10-20 08:56:00
1:16 AM,30.2,28.4,93,29.68,10.0,WSW,3.5,-,N/A,,Clear,240,2012-10-20 09:16:00
1:36 AM,30.2,28.4,93,29.69,10.0,WSW,4.6,-,N/A,,Clear,240,2012-10-20 09:36:00
1:56 AM,30.2,28.4,93,29.69,10.0,WSW,3.5,-,N/A,,Clear,240,2012-10-20 09:56:00
2:16 AM,30.2,28.4,93,29.69,10.0,Calm,Calm,-,N/A,,Clear,0,2012-10-20 10:16:00
2:36 AM,30.2,28.4,93,29.69,10.0,Calm,Calm,-,N/A,,Clear,0,2012-10-20 10:36:00
2:56 AM,30.2,28.4,93,29.69,10.0,Calm,Calm,-,N/A,,Clear,0,2012-10-20 10:56:00
3:16 AM,30.2,28.4,93,29.69,10.0,SW,3.5,-,N/A,,Clear,230,2012-10-20 11:16:00
3:36 AM,30.2,28.4,93,29.70,10.0,SW,3.5,-,N/A,,Clear,220,2012-10-20 11:36:00
3:56 AM,30.2,28.4,93,29.70,10.0,SSW,3.5,-,N/A,,Clear,210,2012-10-20 11:56:00
4:16 AM,30.2,28.4,93,29.71,10.0,SW,3.5,-,N/A,,Partly Cloudy,230,2012-10-20 12:16:00
4:36 AM,30.2,26.6,86,29.71,10.0,WSW,3.5,-,N/A,,Mostly Cloudy,240,2012-10-20 12:36:00
4:56 AM,30.2,28.4,93,29.71,10.0,SSW,4.6,-,N/A,,Overcast,200,2012-10-20 12:56:00
5:16 AM,30.2,28.4,93,29.71,10.0,SW,3.5,-,N/A,,Overcast,220,2012-10-20 13:16:00
5:36 AM,30.2,28.4,93,29.71,10.0,Calm,Calm,-,N/A,,Overcast,0,2012-10-20 13:36:00
5:56 AM,30.2,28.4,93,29.71,10.0,SSW,3.5,-,N/A,,Mostly Cloudy,210,2012-10-20 13:56:00
6:16 AM,30.2,28.4,93,29.71,10.0,North,-9999.0,-,N/A,,Mostly Cloudy,0,2012-10-20 14:16:00
6:36 AM,30.2,28.4,93,29.72,10.0,SSW,3.5,-,N/A,,Mostly Cloudy,200,2012-10-20 14:36:00
6:56 AM,30.2,28.4,93,29.73,10.0,Calm,Calm,-,N/A,,Scattered Clouds,0,2012-10-20 14:56:00
7:16 AM,30.2,26.6,86,29.72,10.0,Calm,Calm,-,N/A,,Scattered Clouds,0,2012-10-20 15:16:00
7:36 AM,-9999,-9999,N/A,-9999,10.0,North,-9999.0,-,N/A,,Scattered Clouds,0,2012-10-20 15:36:00
7:56 AM,-9999,-9999,N/A,-9999,10.0,North,-9999.0,-,N/A,,Scattered Clouds,0,2012-10-20 15:56:00
8:16 AM,-9999,-9999,N/A,-9999,10.0,North,-9999.0,-,N/A,,Scattered Clouds,0,2012-10-20 16:16:00
8:36 AM,28.4,26.6,93,29.74,10.0,SSW,3.5,-,N/A,,Scattered Clouds,200,2012-10-20 16:36:00
8:56 AM,30.2,26.6,86,29.74,10.0,Calm,Calm,-,N/A,,Scattered Clouds,0,2012-10-20 16:56:00
9:16 AM,30.2,28.4,93,29.74,10.0,North,-9999.0,-,N/A,,Scattered Clouds,0,2012-10-20 17:16:00
9:36 AM,30.2,28.4,93,29.75,10.0,SW,3.5,-,N/A,,Scattered Clouds,230,2012-10-20 17:36:00
9:56 AM,32.0,30.2,93,29.75,10.0,WSW,3.5,-,N/A,,Scattered Clouds,240,2012-10-20 17:56:00
10:16 AM,33.8,30.2,87,29.76,10.0,WSW,3.5,-,N/A,,Scattered Clouds,250,2012-10-20 18:16:00
10:36 AM,-9999,-9999,N/A,-9999,10.0,North,-9999.0,-,N/A,,Scattered Clouds,0,2012-10-20 18:36:00
10:56 AM,35.6,30.2,81,29.76,10.0,North,-9999.0,-,N/A,,Scattered Clouds,0,2012-10-20 18:56:00
11:16 AM,-9999,-9999,N/A,29.77,10.0,Calm,Calm,-,N/A,,Scattered Clouds,0,2012-10-20 19:16:00
11:36 AM,37.4,30.2,75,29.77,10.0,Calm,Calm,-,N/A,,Scattered Clouds,0,2012-10-20 19:36:00
11:56 AM,39.2,32.0,75,29.79,10.0,ENE,3.5,-,N/A,,Scattered Clouds,70,2012-10-20 19:56:00
12:16 PM,39.2,30.2,70,29.80,10.0,East,3.5,-,N/A,,Scattered Clouds,90,2012-10-20 20:16:00
12:36 PM,39.2,28.4,65,29.81,10.0,East,3.5,-,N/A,,Scattered Clouds,80,2012-10-20 20:36:00
12:56 PM,39.2,26.6,61,29.81,10.0,East,4.6,-,N/A,,Scattered Clouds,80,2012-10-20 20:56:00
1:16 PM,39.2,26.6,61,29.81,10.0,ENE,4.6,-,N/A,,Scattered Clouds,70,2012-10-20 21:16:00
1:36 PM,39.2,26.6,61,29.82,10.0,East,3.5,-,N/A,,Scattered Clouds,80,2012-10-20 21:36:00
1:56 PM,41.0,28.4,61,29.82,10.0,East,3.5,-,N/A,,Scattered Clouds,80,2012-10-20 21:56:00
2:16 PM,41.0,26.6,57,29.82,10.0,East,3.5,-,N/A,,Scattered Clouds,80,2012-10-20 22:16:00
2:36 PM,42.8,24.8,49,29.83,10.0,ESE,3.5,-,N/A,,Scattered Clouds,110,2012-10-20 22:36:00
2:56 PM,41.0,24.8,53,29.83,10.0,ENE,3.5,-,N/A,,Scattered Clouds,70,2012-10-20 22:56:00
3:16 PM,41.0,24.8,53,29.83,10.0,Calm,Calm,-,N/A,,Scattered Clouds,0,2012-10-20 23:16:00
3:36 PM,42.8,23.0,46,29.83,10.0,ESE,4.6,-,N/A,,Scattered Clouds,110,2012-10-20 23:36:00
3:56 PM,41.0,24.8,53,29.83,10.0,SE,4.6,-,N/A,,Scattered Clouds,130,2012-10-20 23:56:00
4:16 PM,39.2,24.8,56,29.83,10.0,SE,4.6,-,N/A,,Scattered Clouds,130,2012-10-21 00:16:00
4:36 PM,39.2,24.8,56,29.83,10.0,SE,4.6,-,N/A,,Scattered Clouds,140,2012-10-21 00:36:00
4:56 PM,35.6,26.6,70,29.84,10.0,SSE,5.8,-,N/A,,Partly Cloudy,150,2012-10-21 00:56:00
5:16 PM,33.8,26.6,75,29.83,10.0,Calm,Calm,-,N/A,,Partly Cloudy,0,2012-10-21 01:16:00
5:36 PM,33.8,26.6,75,29.84,10.0,SSW,3.5,-,N/A,,Partly Cloudy,200,2012-10-21 01:36:00
5:56 PM,32.0,26.6,80,29.84,10.0,SSW,4.6,-,N/A,,Partly Cloudy,210,2012-10-21 01:56:00
6:36 PM,32.0,26.6,80,29.82,10.0,SSW,4.6,-,N/A,,Partly Cloudy,210,2012-10-21 02:36:00
6:56 PM,32.0,26.6,80,29.82,10.0,SW,5.8,-,N/A,,Partly Cloudy,220,2012-10-21 02:56:00
7:16 PM,32.0,26.6,80,29.83,10.0,SW,5.8,-,N/A,,Partly Cloudy,230,2012-10-21 03:16:00
7:36 PM,33.8,26.6,75,29.83,10.0,SW,4.6,-,N/A,,Partly Cloudy,220,2012-10-21 03:36:00
7:56 PM,32.0,24.8,75,29.84,10.0,SW,5.8,-,N/A,,Partly Cloudy,230,2012-10-21 03:56:00
8:16 PM,32.0,26.6,80,29.84,10.0,South,4.6,-,N/A,,Partly Cloudy,190,2012-10-21 04:16:00
8:36 PM,-9999,-9999,N/A,29.83,10.0,SW,3.5,-,N/A,,Partly Cloudy,220,2012-10-21 04:36:00
8:50 PM,32.0,24.8,75,29.84,10.0,SSW,4.6,-,N/A,,Clear,200,2012-10-21 04:50:00
9:16 PM,32.0,26.6,80,29.85,10.0,Calm,Calm,-,N/A,,Clear,0,2012-10-21 05:16:00
9:36 PM,30.2,24.8,80,29.86,10.0,South,4.6,-,N/A,,Clear,170,2012-10-21 05:36:00
9:56 PM,30.2,24.8,80,29.87,10.0,Calm,Calm,-,N/A,,Clear,0,2012-10-21 05:56:00
10:16 PM,30.2,24.8,80,29.87,10.0,WSW,4.6,-,N/A,,Clear,240,2012-10-21 06:16:00
10:36 PM,30.2,26.6,86,29.88,10.0,WSW,4.6,-,N/A,,Clear,250,2012-10-21 06:36:00
10:56 PM,30.2,26.6,86,29.88,10.0,South,3.5,-,N/A,,Clear,170,2012-10-21 06:56:00
11:16 PM,30.2,24.8,80,29.88,10.0,SSW,3.5,-,N/A,,Clear,210,2012-10-21 07:16:00
11:36 PM,-9999,-9999,N/A,29.87,-9999.0,SSE,4.6,-,N/A,,Unknown,150,2012-10-21 07:36:00
11:56 PM,30.2,24.8,80,29.88,10.0,Calm,Calm,-,N/A,,Clear,0,2012-10-21 07:56:00